KHZY

Details ICAO KHZY
Name ASHTABULA CO
Region United States
Timezone America/New_York (UTC-4.0)
Plans Departing 4
Arriving 1
Stats Elevation 924 ft / 282 m (AMSL)
Location 41.777972° -80.695506°
Runways 1
Magnetic Variation 9.124° W
Sunrise 2018-05-26 09:55:16 UTC / 2018-05-26 05:55:16 Local
Sunset 2018-05-27 00:47:18 UTC / 2018-05-26 20:47:18 Local
Advertisement - Login to hide

Runways

ID Width Length Bearing (true) Bearing (mag) Surface Threshold Offset Overrun Length
08 98 ft / 30 m 5,185 ft / 1,580 m 78.54° 87.66° Asphalt 0 ft / 0 m 0 ft / 0 m
26 98 ft / 30 m 5,185 ft / 1,580 m 258.55° 267.67° Asphalt 0 ft / 0 m 0 ft / 0 m

Map

Weather


0- 5 10 15 20 25 30 35+ Temperature / ° C

Clouds and Precipitation
Forecast for 2018-05-26 12:00 UTC. Updated an hour ago

Ground ~20,000 ft ~40,000 ft Winds

METAR

KHZY 261153Z AUTO 18004KT 10SM CLR 18/15 A2985 RMK AO2 SLP103 T01780150 10178 20144 53006

TAF

Not found

Frequencies

Recorded 118.32 MHz ASOS
Approach 121.00 MHz ERIE APP/DEP
Unicom 122.80 MHz CTAF/UNICOM
Warning: Do not use this data for real-world aviation or navigation. No guarantee of current accuracy is given.